Temp
25 26 26 24 23 21 23 25 26 28 28 29 28 28 29 28 29 27 23 23 26 26 25 24 24 24 25 25 26 25 26 25 25 25 25 24 24 23 23 23 23 23 23 24 23 23 23 23 23
25 26 25 20 21 22 23 26 28 28 27 26 28 29 28 29 27 23 23 24 25 25 24 24 24 24 24 25 25 25 25 25 25 25 24 24 24 23 23 23 23 24 24 24 24 23 23 23 23
25 25 22 20 18 22 24 26 26 27 26 28 29 29 29 29 27 25 26 24 25 24 24 24 24 24 25 25 25 25 25 24 24 24 24 24 23 23 23 24 24 24 24 24 23 24 23 23 23
24 22 19 20 21 22 25 26 25 27 27 28 29 29 29 29 29 28 24 26 25 24 24 24 24 25 24 24 25 25 25 24 24 24 24 24 24 24 24 24 24 24 24 24 24 24 24 23 23
23 18 20 20 21 22 24 26 26 27 27 26 28 30 29 29 27 26 24 24 25 23 23 23 24 25 25 24 24 25 24 24 24 24 24 23 23 24 24 25 24 24 24 24 24 24 24 24 23
20 18 18 19 21 24 25 26 26 27 26 27 27 29 29 28 27 24 23 22 23 24 24 23 24 24 25 25 24 24 24 24 24 24 24 24 24 25 25 25 24 24 24 24 24 24 24 24 24
20 18 18 20 21 23 25 26 26 25 26 27 28 28 28 28 27 25 24 23 23 23 22 21 23 24 24 25 24 24 24 24 24 24 24 24 25 25 25 25 24 24 24 25 25 24 24 24 24
18 17 18 19 21 22 24 26 25 26 27 27 28 27 27 27 27 24 23 23 23 22 22 20 21 23 24 24 24 24 24 24 24 24 24 24 24 24 25 25 25 25 25 25 25 25 24 24 25
19 17 16 19 20 23 23 23 25 26 26 26 27 27 27 29 24 23 22 22 22 22 21 20 20 20 23 23 23 24 23 23 23 24 24 24 24 24 24 24 25 24 25 25 25 25 25 25 24
18 15 18 19 21 22 22 23 23 24 24 25 25 26 28 26 24 22 21 21 20 20 20 20 20 20 22 23 23 23 23 22 22 23 23 24 24 24 24 24 25 25 24 24 24 24 24 25 25
19 18 20 21 22 21 22 23 24 24 24 24 25 25 27 25 22 22 22 22 21 20 20 20 20 20 21 22 22 22 22 22 22 22 23 23 24 24 24 24 25 24 24 24 24 24 24 24 24
19 19 21 21 22 22 22 23 23 22 24 24 24 24 26 25 22 21 22 22 22 22 21 20 20 20 20 21 22 23 22 22 22 21 22 23 23 23 24 24 24 24 24 24 24 24 23 23 23
19 20 21 21 20 20 21 21 22 23 24 24 24 24 24 24 22 23 24 23 22 22 21 20 20 20 21 21 21 22 22 22 22 21 21 22 22 23 24 24 24 24 23 24 24 24 23 23 23
20 20 20 20 20 20 21 22 21 23 24 24 24 24 23 23 22 23 22 22 22 22 22 21 21 20 20 21 21 21 21 21 21 20 20 22 23 23 24 22 23 23 24 24 24 23 23 23 23
20 20 19 20 22 21 20 21 21 23 23 22 23 24 23 22 23 23 25 24 24 24 22 21 21 21 22 22 22 21 21 20 19 20 22 23 23 23 23 24 24 24 24 23 23 23 23 23 23
19 17 18 19 20 22 22 21 22 22 22 23 23 23 23 23 23 26 26 26 26 24 24 23 21 21 21 21 21 20 20 19 19 19 22 23 23 23 23 23 23 23 25 24 23 23 23 23 23
14 16 17 18 19 21 20 20 21 22 22 21 21 22 23 22 22 24 27 27 27 26 25 23 22 21 22 21 20 20 19 19 19 19 21 22 22 23 23 22 24 24 25 25 23 23 22 23 23
16 17 17 17 19 20 18 18 19 20 19 19 19 19 20 22 23 24 26 26 28 26 25 25 24 22 20 19 19 19 20 20 20 21 22 24 24 24 23 23 22 23 24 25 24 23 23 22 23
17 17 16 17 19 19 18 18 18 19 18 19 18 17 18 20 22 23 24 25 25 26 24 24 22 22 21 19 19 19 19 20 21 21 22 21 23 24 25 24 22 21 24 24 25 23 23 22 23
17 16 16 17 18 17 17 17 17 19 19 19 19 18 17 17 18 19 22 22 23 25 27 24 23 22 21 21 20 20 19 20 22 22 22 23 23 23 23 25 25 24 22 22 24 24 22 22 22
17 17 17 17 18 18 18 18 19 19 19 20 19 19 18 18 17 18 18 19 19 20 23 24 24 23 22 21 20 21 20 20 21 22 22 23 23 22 22 22 22 24 23 23 22 24 23 22 22
17 18 18 18 17 16 19 17 18 18 19 20 20 18 17 18 18 17 18 17 18 21 21 22 21 21 21 21 20 21 19 18 20 22 25 26 25 25 23 23 23 22 21 21 22 23 23 23 21
17 19 18 18 16 16 17 15 19 18 18 18 18 18 19 17 17 17 18 20 22 20 21 22 22 22 22 21 21 21 22 20 21 21 23 24 24 24 24 23 23 22 22 19 20 21 25 24 24
18 17 16 14 14 14 17 15 18 19 17 18 18 18 18 17 17 15 18 22 21 21 20 20 21 21 22 22 22 22 22 20 19 19 20 21 23 23 23 21 20 21 21 18 20 19 22 22 23
15 14 12 12 12 16 17 15 18 19 19 19 18 18 16 14 13 14 15 15 17 17 19 19 19 19 20 21 21 21 22 21 20 19 19 20 20 21 22 23 22 19 21 21 21 22 22 22 21
16 14 12 11 14 15 15 14 18 19 20 18 18 17 14 14 12 12 13 14 17 16 17 18 19 19 19 20 21 21 21 21 21 21 20 20 20 20 20 20 20 20 21 21 21 21 21 21 21
14 13 13 13 14 13 13 14 17 17 15 15 17 15 15 15 13 12 12 13 14 16 16 17 18 19 19 20 21 21 22 21 21 21 20 20 20 21 20 20 20 20 20 20 20 20 20 20 19
14 13 13 12 13 12 13 13 15 15 14 15 14 15 14 14 15 13 13 12 15 15 15 15 18 20 20 21 22 22 22 22 21 20 20 20 20 20 20 20 20 20 20 20 20 20 20 19 19
12 11 11 11 12 12 12 13 14 13 13 13 13 14 13 14 14 15 14 14 15 16 18 16 16 17 20 22 21 22 22 22 21 21 21 20 20 20 20 20 20 20 20 20 20 20 19 19 19
13 12 10 8 8 9 8 12 16 14 14 13 13 13 13 12 14 14 15 15 17 17 17 18 18 17 17 17 20 22 22 22 21 21 21 20 20 20 20 20 20 20 20 20 20 20 20 20 19
Height
766 763 760 760 790 797 800 787 766 765 760 743 743 743 745 741 749 767 732 736 739 743 750 755 760 764 766 768 770 772 774 778 781 785 788 791 795 798 800 802 804 805 806 808 810 811 812 813 814
766 763 761 772 802 808 797 770 768 762 752 743 739 739 742 746 733 735 735 737 740 744 751 757 761 764 767 769 772 774 777 780 782 784 788 792 795 798 800 802 804 806 807 809 810 811 813 815 815
765 764 771 788 809 806 791 767 765 758 747 743 740 733 735 738 731 731 731 736 739 745 752 758 762 765 767 771 772 775 779 782 785 788 789 792 795 798 800 802 804 807 808 809 810 811 813 815 816
765 767 777 795 799 785 775 764 764 756 745 740 738 743 732 728 727 727 731 733 738 744 750 758 763 766 768 769 773 775 778 781 785 788 791 793 796 798 800 802 804 806 809 810 811 813 815 816 818
765 776 793 798 791 777 766 757 759 761 754 746 739 742 738 728 727 728 731 734 737 745 751 757 761 765 768 771 773 775 778 780 783 786 789 793 796 799 801 803 804 806 808 810 812 813 815 816 818
776 781 804 806 789 769 761 755 759 760 756 747 747 739 737 728 728 731 735 738 742 743 749 756 761 764 766 770 773 776 777 780 782 785 787 790 795 798 800 802 805 806 808 810 813 814 815 816 817
777 790 799 793 787 775 763 752 760 763 760 754 743 751 735 730 730 731 734 739 744 749 752 756 761 764 766 768 771 776 778 780 782 783 786 790 792 795 799 802 804 807 809 810 812 814 815 816 817
773 784 795 790 787 775 758 755 755 761 758 745 742 754 751 730 729 733 737 741 745 750 752 758 761 765 766 770 771 774 777 780 782 786 786 788 792 795 797 800 804 806 808 810 812 813 814 816 816
768 792 802 788 783 768 758 764 754 752 755 753 746 743 736 731 734 733 737 741 746 749 752 754 760 764 766 769 773 776 778 781 782 784 788 789 792 795 797 800 803 805 808 810 811 812 813 815 815
775 794 788 776 769 768 764 764 761 760 758 755 749 737 734 731 733 735 734 736 741 742 747 750 758 760 764 767 770 773 777 781 782 783 786 788 791 794 797 799 802 805 807 809 811 812 812 813 813
770 782 772 767 763 762 762 762 757 758 755 753 751 743 737 737 734 735 736 732 731 740 747 744 752 758 761 763 767 771 773 776 781 784 785 788 790 792 795 797 799 803 806 808 809 811 812 812 811
772 769 764 764 759 760 759 756 757 754 745 741 740 740 737 735 734 728 732 734 734 736 741 745 746 753 757 762 763 766 771 774 777 781 784 785 788 790 792 795 799 802 804 806 808 809 811 811 810
771 767 761 758 760 759 756 758 755 739 739 734 734 734 733 734 732 725 722 726 731 733 737 739 744 747 751 757 760 763 766 770 775 776 780 783 785 788 791 793 797 801 804 805 806 807 809 809 810
763 762 761 757 757 755 757 751 748 734 732 731 729 727 726 728 724 724 724 726 728 729 732 736 739 745 750 752 755 759 763 766 772 774 776 780 783 785 788 794 794 799 802 805 807 807 807 807 808
760 767 763 758 752 753 752 750 745 734 730 731 726 723 720 719 720 720 717 720 722 722 729 731 733 741 745 746 749 754 754 759 766 770 773 778 783 786 787 790 793 798 799 803 807 806 806 804 807
766 771 777 762 755 747 749 753 739 731 732 729 724 723 721 718 717 717 717 716 719 720 722 725 730 736 740 743 744 748 748 756 760 767 768 775 780 785 787 789 793 798 796 798 804 807 804 804 802
784 786 781 775 758 752 752 755 739 732 733 734 728 722 718 719 717 716 713 714 716 715 717 719 724 729 732 736 741 744 748 751 757 762 765 769 774 778 782 786 788 796 795 792 801 804 803 802 800
784 782 778 776 759 752 758 753 746 737 736 733 731 727 723 716 710 708 709 711 711 713 715 715 718 722 728 735 741 744 748 750 752 757 762 765 768 771 776 779 785 789 793 791 795 800 798 801 797
772 777 780 769 754 758 758 751 745 736 733 731 727 727 722 713 701 702 702 705 708 709 712 712 715 717 722 729 735 739 739 745 748 753 757 762 765 765 767 773 776 783 785 792 789 792 795 799 794
771 776 774 763 751 760 757 748 742 736 731 724 721 721 720 713 705 698 696 697 700 699 701 706 708 712 715 720 726 731 736 739 744 749 752 756 761 763 759 767 768 773 780 788 784 784 793 797 791
765 770 766 764 751 746 746 738 736 729 724 717 714 712 709 706 704 698 695 693 693 694 695 697 699 705 710 716 723 727 734 739 744 745 749 751 753 758 760 765 765 765 776 774 783 777 781 789 786
767 753 755 755 759 771 744 742 735 729 725 715 707 707 706 702 698 696 692 692 690 688 691 693 696 701 705 711 717 721 725 730 735 737 740 744 747 752 754 757 756 764 773 777 780 776 773 777 780
760 748 753 753 761 759 754 767 725 723 724 717 709 705 699 699 699 696 692 687 685 689 687 691 694 698 702 707 712 717 722 727 730 735 739 742 744 747 748 750 754 764 768 770 779 777 771 773 775
746 752 754 763 767 766 750 760 716 716 719 712 705 701 698 696 695 693 688 686 682 684 687 690 693 696 700 703 707 712 716 721 726 732 734 737 739 744 744 748 749 756 761 770 768 775 774 772 771
756 767 782 779 779 751 739 750 721 700 705 705 703 698 700 697 693 688 686 682 679 679 681 687 692 693 695 699 703 707 712 716 721 725 730 733 736 738 741 742 744 751 756 757 751 762 764 765 766
756 765 785 786 766 749 744 743 709 699 695 698 695 696 699 693 691 685 677 674 672 672 675 679 685 690 692 697 700 705 710 713 717 721 724 730 732 735 738 739 739 742 747 749 752 753 755 758 758
763 771 767 769 759 762 751 731 709 702 707 703 699 706 696 690 689 681 678 669 667 668 669 672 675 684 689 694 698 703 706 711 715 718 722 726 730 733 734 737 737 737 740 742 746 746 749 751 754
758 763 769 772 764 763 743 741 727 716 714 710 710 706 704 699 682 680 680 674 667 669 672 673 679 682 686 691 695 698 703 708 713 716 720 723 727 729 730 732 734 736 738 740 741 743 745 748 751
767 771 772 772 769 758 750 740 726 727 722 717 711 708 706 696 689 677 675 674 671 667 671 677 680 684 685 687 692 696 700 705 710 713 717 720 723 725 727 728 731 733 735 737 739 741 743 745 745
755 761 771 790 790 779 787 739 712 719 717 711 708 703 699 698 688 684 674 671 669 670 673 676 681 683 684 688 690 691 696 701 705 709 713 717 719 722 724 726 728 730 733 735 737 739 740 742 741
Wind_Speed
17 16 8 5 3 4 2 5 2 6 6 4 5 4 3 1 4 4 5 16 26 38 37 35 34 33 32 32 33 33 34 33 32 31 30 27 25 23 21 19 17 16 15 15 14 14 14 14 15
14 10 4 2 3 1 3 3 1 3 6 11 3 2 2 1 2 4 10 11 24 40 36 34 33 32 31 31 30 31 32 31 32 32 30 27 25 23 20 19 17 16 16 15 15 15 14 14 15
7 6 3 4 3 5 4 4 2 5 8 4 3 2 1 1 2 7 9 21 30 36 36 33 33 33 31 29 30 30 31 31 31 30 29 27 25 22 21 20 18 17 16 15 14 14 14 14 14
3 5 4 4 6 6 3 2 5 6 7 1 3 1 3 3 1 6 23 23 33 37 37 34 33 33 32 31 30 30 30 31 31 30 27 26 24 22 21 20 19 18 16 15 15 14 13 12 12
4 3 1 2 5 4 4 6 4 4 7 8 5 1 1 3 4 17 27 24 38 36 35 34 34 33 32 30 30 30 30 31 31 29 27 25 23 22 21 20 19 17 16 14 14 13 12 11 9
3 3 2 5 7 3 3 4 4 3 8 10 8 5 1 2 11 17 20 26 34 37 37 34 33 33 33 32 30 30 30 31 31 30 29 27 25 23 22 20 18 16 15 13 12 11 10 9 7
5 4 5 4 4 7 3 1 3 2 6 5 7 3 5 2 9 19 21 25 30 28 31 30 32 32 32 32 31 30 30 31 31 31 29 27 27 25 23 20 18 15 14 13 11 10 8 7 5
4 4 4 5 5 12 4 2 3 3 5 8 1 1 7 5 17 19 20 24 25 27 30 24 26 31 32 31 31 30 30 30 30 29 29 28 26 24 23 20 17 15 13 12 10 9 7 5 4
4 3 4 7 7 10 3 4 1 2 5 5 5 4 7 2 14 23 22 21 24 26 29 25 25 27 33 31 29 28 28 29 29 28 28 27 26 23 21 20 17 15 13 11 9 7 5 3 3
4 4 7 6 5 6 4 4 5 4 10 4 7 12 6 10 17 13 16 17 23 29 29 26 25 27 32 33 32 31 29 28 28 28 28 28 26 24 22 19 16 14 13 11 9 7 6 5 5
3 4 4 3 5 6 3 4 4 3 18 6 8 10 3 8 12 11 12 21 30 23 26 33 27 25 32 36 34 33 32 31 29 28 28 28 27 25 23 21 20 17 15 12 10 8 7 7 7
1 5 5 7 7 7 10 6 9 10 17 6 9 7 7 7 9 12 16 20 25 29 31 29 32 32 35 35 37 36 34 32 32 30 29 30 28 27 26 24 21 19 17 14 11 8 7 6 6
4 5 6 7 7 7 10 10 12 21 8 12 9 11 10 10 11 17 25 26 25 29 33 33 34 35 40 37 36 36 38 36 35 32 32 32 31 30 27 25 22 19 17 15 12 9 7 7 8
3 3 6 5 6 4 6 8 7 2 8 13 11 14 10 12 14 13 15 21 29 29 33 35 37 36 36 40 38 38 36 36 35 31 33 34 33 31 28 25 22 20 17 14 13 11 9 8 9
2 3 7 4 4 5 4 10 9 7 8 11 13 13 8 11 13 12 28 29 31 31 32 37 40 41 42 44 43 41 40 33 30 33 35 33 32 30 29 26 24 21 15 14 15 12 11 8 11
4 4 3 5 4 6 6 14 8 6 7 10 11 8 6 10 9 25 26 30 33 30 32 34 36 41 42 42 40 35 34 29 29 30 36 33 32 30 28 26 25 22 17 16 17 15 12 11 10
5 2 2 7 5 5 5 6 6 7 5 9 10 10 11 8 10 19 31 31 34 34 35 36 39 41 45 41 39 36 33 30 31 33 34 34 32 31 29 30 26 26 22 16 18 17 14 14 12
4 3 3 4 5 4 10 15 9 11 6 10 9 10 12 15 16 23 28 32 35 38 37 37 40 40 38 32 28 30 31 33 34 35 35 34 33 33 31 30 31 27 25 21 21 19 16 17 11
3 3 5 9 14 5 9 14 12 12 9 11 9 9 11 15 19 18 21 21 27 29 33 36 37 39 36 33 30 30 34 32 31 35 34 33 33 34 32 31 31 30 27 32 20 17 14 19 10
5 5 8 7 11 6 8 13 10 7 8 10 8 8 10 8 10 11 16 16 24 32 36 39 39 39 37 34 32 24 28 33 33 32 30 27 28 28 24 31 33 34 31 33 25 18 17 16 9
4 4 5 7 7 4 5 13 6 6 6 7 7 7 7 9 10 9 9 14 17 25 37 42 41 39 37 34 28 19 22 20 28 32 34 32 26 25 24 28 30 27 34 29 33 26 20 18 4
4 5 6 6 4 5 2 18 9 4 10 9 11 8 9 10 8 8 8 9 18 27 28 33 34 35 35 34 31 29 24 17 20 31 33 35 30 28 29 30 26 26 28 29 35 26 21 15 14
7 3 4 5 7 4 2 5 2 2 7 9 9 10 9 7 8 10 11 17 24 22 27 31 31 29 30 32 32 31 26 21 18 25 26 25 24 26 26 30 33 27 27 25 28 24 19 24 24
1 2 3 2 2 9 8 8 20 17 7 5 6 6 9 9 7 10 17 26 24 26 26 28 31 32 30 30 29 29 27 23 23 21 19 24 25 27 29 30 26 25 28 44 33 37 32 31 31
4 5 4 4 1 9 4 5 16 9 5 8 8 7 7 8 8 9 10 13 20 23 32 31 32 33 32 30 28 25 22 20 19 19 20 21 21 22 23 24 21 21 22 21 26 26 24 21 23
1 5 4 6 6 14 6 7 15 2 3 6 7 4 6 5 6 8 11 10 18 24 29 33 35 33 30 28 25 22 19 18 16 16 16 16 16 18 17 19 19 19 18 18 16 15 15 18 19
0 3 2 3 7 6 5 9 13 5 9 13 3 5 4 4 5 7 8 4 9 17 26 35 37 33 29 26 24 21 17 15 13 12 12 13 13 13 13 11 10 10 11 13 14 13 13 14 19
3 4 0 1 4 6 4 4 7 9 8 10 10 8 8 10 7 7 7 7 8 7 6 17 28 32 30 27 24 22 20 16 14 13 13 12 12 11 10 9 8 7 7 7 7 8 9 12 15
1 1 2 1 3 4 4 3 5 5 5 7 8 6 8 9 8 3 4 5 12 9 7 9 16 21 28 27 25 22 20 18 16 14 13 13 11 10 9 8 7 6 5 5 5 6 9 12 14
4 6 5 4 6 4 3 8 7 2 8 7 12 11 11 9 8 8 2 4 10 13 13 5 15 16 17 19 24 27 24 21 20 19 17 15 13 11 9 7 7 6 5 5 6 6 8 12 15
Wind_Direction
328 337 342 36 39 62 261 248 268 335 341 249 291 227 180 184 179 214 6 162 168 164 168 170 169 166 162 157 154 152 153 156 156 157 158 156 158 157 156 156 154 152 152 149 142 136 133 130 131
331 340 36 79 90 347 258 249 147 291 279 295 207 211 137 25 105 120 110 171 165 164 169 171 171 167 165 160 158 158 158 158 158 159 159 161 161 161 160 158 158 158 155 149 142 138 136 134 136
336 357 74 98 125 212 219 194 220 289 300 306 300 75 152 148 169 182 160 160 164 165 170 173 173 170 167 164 161 159 160 162 162 162 162 163 163 163 163 162 161 160 155 149 144 143 143 143 145
338 9 40 109 216 256 248 28 346 348 327 357 304 357 313 311 23 195 163 163 167 169 172 174 175 174 171 168 165 163 164 164 164 165 165 165 166 166 167 166 163 161 157 153 150 147 148 149 153
51 52 94 219 252 245 245 297 355 338 307 309 327 205 321 24 104 148 160 165 167 169 173 176 178 177 174 172 170 168 169 168 168 168 168 169 170 170 170 169 167 164 160 157 152 149 150 151 158
59 97 107 225 253 238 290 301 354 2 338 319 356 329 223 118 147 155 159 164 172 173 173 178 182 181 178 175 175 175 174 174 173 173 173 173 173 174 174 172 172 168 163 160 155 153 151 155 157
136 113 209 214 255 275 223 261 330 84 329 309 314 268 279 209 176 159 165 169 174 175 172 177 184 186 183 180 180 180 180 179 178 177 177 177 176 177 176 176 177 173 169 166 163 162 160 160 161
116 112 186 218 210 263 262 331 359 29 296 308 20 74 304 317 162 158 160 168 177 178 178 177 184 189 188 187 184 184 184 184 182 182 180 180 181 181 180 180 181 179 179 177 175 173 176 179 182
128 96 213 209 190 239 330 346 343 296 233 327 275 296 270 247 162 153 153 164 178 183 186 181 186 192 191 190 189 189 189 190 187 185 185 183 186 187 189 187 186 187 188 189 191 190 195 219 249
141 161 220 209 217 274 287 285 315 333 291 263 309 305 300 146 161 160 166 172 179 182 186 184 189 190 194 193 192 193 194 197 194 191 189 190 191 193 194 194 193 197 199 203 208 213 222 241 271
175 219 202 248 243 251 248 276 238 262 279 203 269 287 323 296 159 185 204 190 189 185 186 188 187 192 195 196 195 195 197 198 201 201 196 197 198 198 200 200 200 204 207 213 220 233 253 274 284
203 234 216 241 234 254 265 229 253 220 254 243 248 238 279 230 235 184 198 200 190 195 195 194 190 193 199 199 198 199 201 202 203 206 206 203 204 205 206 207 209 212 213 219 228 241 262 286 298
194 247 261 259 271 247 265 256 256 259 264 275 256 265 234 238 240 214 202 200 195 195 199 199 195 195 198 200 201 203 203 207 208 208 211 211 210 211 212 212 215 219 224 229 235 242 258 286 304
209 251 280 292 267 240 236 248 193 330 220 259 258 260 234 220 216 216 196 199 198 201 200 201 199 200 199 201 205 206 206 207 211 212 215 215 216 218 218 225 220 226 231 242 247 252 257 278 294
274 293 329 256 256 234 185 284 235 245 252 256 264 257 248 229 199 227 199 198 204 208 201 204 203 205 208 206 207 207 207 203 206 213 218 219 221 224 227 227 230 232 235 247 256 254 262 273 294
7 47 32 292 334 272 161 258 304 277 267 255 266 268 257 262 208 218 218 206 207 204 203 208 206 209 210 210 207 206 204 203 207 216 219 220 224 231 235 238 239 241 234 246 256 263 265 274 287
5 255 333 317 297 290 186 281 290 315 265 276 280 285 294 269 256 244 220 217 213 210 206 203 205 208 213 210 209 207 210 208 213 220 221 219 223 228 237 241 242 244 243 237 256 258 262 270 286
268 299 261 254 275 213 274 277 268 279 245 251 255 266 268 267 256 235 241 223 221 219 213 210 209 209 209 204 205 209 216 220 222 224 227 225 226 229 235 243 248 246 248 240 240 254 261 267 277
230 232 245 261 272 234 259 269 269 266 293 285 259 242 254 255 257 256 237 238 227 225 217 216 209 209 204 198 196 201 205 216 221 224 226 233 232 227 229 240 245 247 241 243 232 238 254 261 265
231 260 274 277 263 178 269 264 239 245 249 251 255 280 257 269 283 270 264 238 226 216 216 218 213 209 207 201 200 200 204 217 221 226 225 225 228 234 230 235 237 248 245 244 228 219 235 255 271
248 202 253 240 304 296 263 274 285 238 246 268 258 240 251 245 266 270 273 254 234 220 215 213 212 213 210 204 190 189 192 208 216 224 224 226 228 235 236 241 232 236 244 236 237 209 214 237 290
269 227 254 278 349 281 106 288 267 223 240 250 256 252 266 274 278 273 271 260 241 233 222 214 210 209 207 206 191 186 173 165 199 213 216 229 232 244 249 251 255 244 247 242 234 222 208 226 222
237 322 300 279 271 282 180 276 268 188 246 248 262 265 283 277 254 264 273 267 253 237 212 208 202 199 203 205 205 196 198 193 195 206 213 225 230 244 253 250 247 246 251 271 269 253 255 257 239
301 349 299 59 138 258 252 197 275 264 234 244 253 255 283 298 286 253 247 255 254 234 218 206 198 196 192 191 195 204 209 196 176 186 199 206 217 229 237 242 238 230 219 229 221 238 243 247 254
68 46 328 320 313 266 187 214 249 275 196 234 254 277 313 304 305 295 264 228 230 210 209 205 198 189 187 186 187 189 192 193 190 186 193 202 209 214 222 232 242 234 230 231 232 236 249 262 256
353 152 182 261 265 290 333 243 254 30 235 264 245 161 239 14 300 299 288 233 217 211 202 193 194 187 180 179 176 178 180 184 189 188 184 192 202 212 220 227 232 240 240 243 246 248 258 270 277
222 183 203 263 249 269 238 285 301 45 28 1 71 314 42 73 12 360 333 288 227 211 199 192 187 186 179 178 173 174 175 180 184 184 185 188 193 197 195 207 221 233 244 246 249 256 266 273 274
164 156 180 260 277 255 232 269 251 354 0 3 4 326 302 298 77 45 6 353 90 106 182 181 183 182 179 177 176 177 178 181 186 191 197 200 204 211 204 193 199 214 232 248 262 269 275 271 275
156 129 95 203 239 290 310 284 332 294 320 318 303 311 295 288 318 78 63 34 52 99 130 189 191 191 183 184 187 185 187 191 196 204 209 211 212 210 212 207 202 205 221 239 265 285 288 285 295
168 189 163 132 278 252 211 269 230 311 313 343 327 343 355 341 308 307 12 77 33 37 45 190 222 220 209 211 206 195 196 200 208 213 213 217 223 221 219 217 214 224 233 247 270 284 294 295 306